If you wish to contribute or participate in the discussions about articles you are invited to join SKYbrary as a registered user

ENTC

From SKYbrary Wiki
Airport
ICAO: ENTC
Summary
Name Tromso/Langnes
Region Europe
Territory Norway NO.gif
Location Tromso, Norway
Main city served
Coordinates 69° 40' 54", 18° 55' 6"
More airports
in EN
ENAL, ENAN, ENBL, ENBO, ENBR, ENCN, ENEV, ENGM, ENHD, ENKB, ENRS, ENSB, ENSN, ENSO, ENSR, ENTC, ENVR, ENVY, ENXP, ENXT, ENXV, ENZV
Runways
Designator Length Width Surface
1/19 2392 m7,847.769 ft 45 m147.638 ft ASP


METAR
Observation ENTC 230150Z 07003KT 040V100 CAVOK M12/M14 Q0993 RMK WIND 2600FT /////KT
Station Tromso / Langnes
Date/Time 23 December 2014 01:50:00
Wind direction 70°
Wind speed 03 kts
Lowest cloud amount clouds and visibility OK
Temperature -12°C
Dew point -14°C
Humidity 84%
QNH 993 hPa
Weather condition n/a


Tromsø Airport

ICAO: ENTC IATA: TOS

Description

International airport serving city of Tromso in northern Norway.

Climatology

Borderline Subpolar Oceanic/Continental subarctic climate (because of winter temperatures) (Köppen climate classification Cfc/Dfc) - uniform precipitation distribution, temperatures are moderated by the proximity of the ocean and warm currents - cool summers and comparatively mild winters.

Tromso has a reputation for heavy snowfalls in winter.

Maps

Terrain

Loading map...

Airport Layout

Loading map...


Accidents & Serious Incidents at or in vicinity of ENTC

None on SKYbrary